Weather History for Bar Harbor, ME

Change the Weather History Date:

Tuesday, January 29, 2013

  Actual Average Record
Temperature  
Mean Temperature 25 °F -  
Max Temperature 35 °F 32 °F 51 °F (1950)
Min Temperature 15 °F 14 °F -10 °F (1971)
Degree Days  
Heating Degree Days 40    
Moisture  
Dew Point 19 °F    
Average Humidity 74    
Maximum Humidity 100    
Minimum Humidity 48    
Precipitation  
Precipitation 0.00 in - - ()
Sea Level Pressure  
Sea Level Pressure 30.15 in    
Wind  
Wind Speed 2 mph (NNW)    
Max Wind Speed 8 mph    
Max Gust Speed -    
Visibility 10 miles    
Events      
Averages and records for this station are not official NWS values.
T = Trace of Precipitation, MM = Missing Value Source: NWS Daily Summary

Daily Weather History Graph

Daily Weather History Graph

Search for Another Location

Airport:

Trip Planner

Search our weather history database for the weather conditions in past years. The results will help you decide how hot, cold, wet, or windy it might be!

Date:

Astronomy

Jan. 29, 2013 Rise Set
Actual Time 6:54 AM EST 4:38 PM EST
Civil Twilight 6:23 AM EST 5:10 PM EST
Nautical Twilight 5:48 AM EST 5:45 PM EST
Astronomical Twilight 5:14 AM EST 6:19 PM EST
Moon 7:40 PM EST (1/29) 7:42 AM EST (1/29)
Length of Visible Light 10h 46m
Length of Day
9h 43m
Waning Gibbous, 94% of the Moon is Illuminated
Jan 29
Waning Gibbous
Feb 3
Last Quarter
Feb 10
New
Feb 17
First Quarter
Feb 25
Full

Hourly Weather History & Observations

Time (EST) Temp. Windchill Dew Point Humidity Pressure Visibility Wind Dir Wind Speed Gust Speed Precip Events Conditions
12:15 AM 21.2 °F 16.4 °F 21.2 °F 100% 30.06 in 10.0 mi North 3.5 mph - N/A   Overcast
12:35 AM 21.2 °F - 19.4 °F 93% 30.06 in 10.0 mi Calm Calm - N/A   Overcast
12:56 AM 21.2 °F - 19.4 °F 93% 30.06 in 10.0 mi Calm Calm - N/A   Scattered Clouds
1:15 AM 21.2 °F 16.4 °F 19.4 °F 93% 30.08 in 10.0 mi NNW 3.5 mph - N/A   Mostly Cloudy
1:35 AM 21.2 °F 16.4 °F 17.6 °F 86% 30.08 in 10.0 mi NNW 3.5 mph - N/A   Overcast
1:55 AM 21.2 °F 16.4 °F 17.6 °F 86% 30.08 in 10.0 mi NNW 3.5 mph - N/A   Overcast
2:15 AM 21.2 °F 16.4 °F 17.6 °F 86% 30.09 in 10.0 mi NNW 3.5 mph - N/A   Overcast
2:35 AM 21.2 °F 16.4 °F 17.6 °F 86% 30.08 in 10.0 mi NNW 3.5 mph - N/A   Overcast
2:55 AM 21.2 °F - 17.6 °F 86% 30.08 in 10.0 mi Calm Calm - N/A   Overcast
3:15 AM 19.4 °F - 17.6 °F 93% 30.08 in 10.0 mi Calm Calm - N/A   Overcast
3:35 AM 19.4 °F 12.8 °F 17.6 °F 93% 30.07 in 10.0 mi North 4.6 mph - N/A   Overcast
3:55 AM 19.4 °F 12.8 °F 15.8 °F 86% 30.08 in 10.0 mi NNW 4.6 mph - N/A   Mostly Cloudy
4:15 AM 19.4 °F 12.8 °F 15.8 °F 86% 30.08 in 10.0 mi NNW 4.6 mph - N/A   Partly Cloudy
4:35 AM 17.6 °F 12.3 °F 14.0 °F 86% 30.09 in 10.0 mi NNW 3.5 mph - N/A   Clear
4:55 AM 17.6 °F - 12.2 °F 79% 30.10 in 10.0 mi Calm Calm - N/A   Scattered Clouds
5:15 AM 17.6 °F - 12.2 °F 79% 30.10 in 10.0 mi Calm Calm - N/A   Overcast
5:35 AM 17.6 °F - 12.2 °F 79% 30.10 in 10.0 mi Calm Calm - N/A   Overcast
6:15 AM 17.6 °F - 14.0 °F 86% 30.11 in 10.0 mi Calm Calm - N/A   Mostly Cloudy
6:35 AM 15.8 °F - 12.2 °F 86% 30.11 in 10.0 mi Calm Calm - N/A   Clear
6:55 AM 15.8 °F 10.2 °F 12.2 °F 86% 30.11 in 10.0 mi North 3.5 mph - N/A   Clear
7:15 AM 15.8 °F - 12.2 °F 86% 30.12 in 10.0 mi Calm Calm - N/A   Clear
7:35 AM 15.8 °F - 12.2 °F 86% 30.11 in 10.0 mi Calm Calm - N/A   Clear
7:55 AM 17.6 °F - 15.8 °F 93% 30.12 in 10.0 mi Calm Calm - N/A   Clear
8:15 AM 19.4 °F - 14.0 °F 80% 30.13 in 10.0 mi Calm Calm - N/A   Clear
8:35 AM 19.4 °F - 15.8 °F 86% 30.15 in 10.0 mi Calm Calm - N/A   Clear
8:55 AM 21.2 °F - 15.8 °F 80% 30.16 in 10.0 mi Calm Calm - N/A   Clear
9:15 AM 23.0 °F - 15.8 °F 74% 30.16 in 2.5 mi Calm Calm - N/A   Clear
9:35 AM 24.8 °F 19.1 °F 15.8 °F 69% 30.16 in 9.0 mi NNE 4.6 mph - N/A   Clear
9:55 AM 26.6 °F 20.0 °F 15.8 °F 64% 30.17 in 3.0 mi North 5.8 mph - N/A   Clear
10:15 AM 26.6 °F - 15.8 °F 64% 30.18 in 10.0 mi Calm Calm - N/A   Clear
10:35 AM 28.4 °F - 17.6 °F 64% 30.18 in 10.0 mi Calm Calm - N/A   Clear
10:55 AM 28.4 °F - 17.6 °F 64% 30.19 in 10.0 mi Calm Calm - N/A   Clear
11:15 AM 30.2 °F 23.4 °F 21.2 °F 69% 30.18 in 10.0 mi West 6.9 mph - N/A   Clear
11:35 AM 32.0 °F 28.7 °F 19.4 °F 60% 30.19 in 10.0 mi West 3.5 mph - N/A   Clear
11:55 AM 33.8 °F 28.6 °F 19.4 °F 56% 30.18 in 10.0 mi WSW 5.8 mph - N/A   Clear
12:15 PM 33.8 °F 27.0 °F 19.4 °F 56% 30.18 in 10.0 mi NW 8.1 mph - N/A   Clear
12:35 PM 33.8 °F - 19.4 °F 56% 30.16 in 10.0 mi Calm Calm - N/A   Clear
12:55 PM 35.6 °F 31.7 °F 17.6 °F 48% 30.15 in 10.0 mi SW 4.6 mph - N/A   Clear
1:15 PM 35.6 °F - 17.6 °F 48% 30.16 in 10.0 mi Calm Calm - N/A   Clear
1:35 PM 35.6 °F 30.7 °F 19.4 °F 52% 30.14 in 10.0 mi NE 5.8 mph - N/A   Clear
1:55 PM 35.6 °F 29.2 °F 19.4 °F 52% 30.14 in 10.0 mi NNE 8.1 mph - N/A   Clear
2:15 PM 35.6 °F 29.9 °F 19.4 °F 52% 30.16 in 10.0 mi NNE 6.9 mph - N/A   Clear
2:35 PM 33.8 °F 29.6 °F 17.6 °F 52% 30.17 in 10.0 mi North 4.6 mph - N/A   Clear
2:55 PM 33.8 °F 29.6 °F 17.6 °F 52% 30.19 in 10.0 mi NW 4.6 mph - N/A   Clear
3:15 PM 33.8 °F 29.6 °F 17.6 °F 52% 30.19 in 10.0 mi North 4.6 mph - N/A   Clear
3:35 PM 33.8 °F - 17.6 °F 52% 30.17 in 10.0 mi Calm Calm - N/A   Clear
3:55 PM 33.8 °F 30.8 °F 17.6 °F 52% 30.17 in 10.0 mi North 3.5 mph - N/A   Clear
4:15 PM 33.8 °F - 17.6 °F 52% 30.17 in 10.0 mi Calm Calm - N/A   Clear
4:35 PM 30.2 °F - 19.4 °F 64% 30.18 in 6.0 mi Calm Calm - N/A   Clear
4:55 PM 30.2 °F - 19.4 °F 64% 30.18 in 5.0 mi Calm Calm - N/A   Clear
5:15 PM 30.2 °F - 21.2 °F 69% 30.17 in 8.0 mi Calm Calm - N/A   Clear
5:35 PM 30.2 °F - 21.2 °F 69% 30.17 in 7.0 mi Calm Calm - N/A   Clear
5:55 PM 30.2 °F 26.7 °F 19.4 °F 64% 30.18 in 10.0 mi North 3.5 mph - N/A   Clear
6:15 PM 30.2 °F 26.7 °F 19.4 °F 64% 30.18 in 10.0 mi North 3.5 mph - N/A   Clear
6:35 PM 30.2 °F - 19.4 °F 64% 30.19 in 10.0 mi Calm Calm - N/A   Clear
6:55 PM 28.4 °F - 21.2 °F 74% 30.21 in 10.0 mi Calm Calm - N/A   Clear
7:15 PM 28.4 °F - 21.2 °F 74% 30.20 in 10.0 mi Calm Calm - N/A   Clear
7:35 PM 28.4 °F - 21.2 °F 74% 30.20 in 10.0 mi Calm Calm - N/A   Clear
7:55 PM 26.6 °F - 21.2 °F 80% 30.22 in 10.0 mi Calm Calm - N/A   Clear
8:15 PM 28.4 °F - 21.2 °F 74% 30.23 in 10.0 mi Calm Calm - N/A   Mostly Cloudy
8:35 PM 28.4 °F - 23.0 °F 80% 30.22 in 10.0 mi Calm Calm - N/A   Overcast
8:55 PM 28.4 °F - 23.0 °F 80% 30.22 in 9.0 mi Calm Calm - N/A   Overcast
9:15 PM 28.4 °F - 24.8 °F 86% 30.22 in 10.0 mi Calm Calm - N/A   Overcast
9:35 PM 28.4 °F - 24.8 °F 86% 30.21 in 10.0 mi Calm Calm - N/A   Overcast
9:55 PM 30.2 °F - 24.8 °F 80% 30.20 in 10.0 mi Calm Calm - N/A   Overcast
10:35 PM 30.2 °F - 24.8 °F 80% 30.21 in 10.0 mi Calm Calm - N/A   Overcast
10:55 PM 30.2 °F - 24.8 °F 80% 30.21 in 10.0 mi Calm Calm - N/A   Overcast
11:15 PM 30.2 °F - 24.8 °F 80% 30.19 in 10.0 mi Calm Calm - N/A   Overcast
11:35 PM 30.2 °F - 26.6 °F 86% 30.18 in 10.0 mi Calm Calm - N/A   Overcast
11:55 PM 30.2 °F - 26.6 °F 86% 30.18 in 10.0 mi Calm Calm - N/A   Overcast